This demonstration page uses our WeatherBlox Daily Observations layout. Learn more.

Left ArrowRight Arrow

36.19886, -115.1175

Hourly Observations for December 29, 2015

Temp ( °F °C ) Dew Point ( °F °C ) Humidity (%) Winds ( mph kmh ) Pressure ( in mb ) Visibility ( mi km ) Precip ( " mm )
12:53 am 00:53 Cloudy 39 3.9 25 -3.9 57 57 NNW 12 19 29.90 1012 10 16 0.00 0.00
1:53 am 01:53 Clear 38 3.3 25 -3.9 60 60 NNW 15 24 29.90 1012 10 16 0.00 0.00
2:53 am 02:53 Clear 37 2.8 25 -3.9 62 62 NNW 20 31 29.90 1013 10 16 0.00 0.00
3:53 am 03:53 Clear 36 2.2 23 -5 59 59 N 14 22 29.92 1013 10 16 0.00 0.00
4:53 am 04:53 Clear 35 1.7 24 -4.4 64 64 N 16 26 29.94 1014 10 16 0.00 0.00
5:53 am 05:53 Clear 36 2.2 22 -5.6 57 57 N 15 24 29.96 1015 10 16 0.00 0.00
6:53 am 06:53 Sunny 35 1.7 21 -6.1 57 57 N 16 26 30.00 1016 10 16 0.00 0.00
7:53 am 07:53 Sunny 36 2.2 19 -7.2 50 50 NW 9 15 30.04 1017 10 16 0.00 0.00
8:53 am 08:53 Sunny 40 4.4 19 -7.2 43 43 N 15 24 30.05 1018 10 16 0.00 0.00
9:53 am 09:53 Sunny 44 6.7 18 -7.8 35 35 N 17 28 30.07 1018 10 16 0.00 0.00
10:53 am 10:53 Sunny 46 7.8 17 -8.3 31 31 N 13 20 30.08 1019 10 16 0.00 0.00
11:53 am 11:53 Sunny 47 8.3 16 -8.9 29 29 NNW 10 17 30.06 1018 10 16 0.00 0.00
12:53 pm 12:53 Sunny 48 8.9 16 -8.9 28 28 NNW 13 20 30.04 1017 10 16 0.00 0.00
1:53 pm 13:53 Sunny 49 9.4 16 -8.9 27 27 N 15 24 30.04 1017 10 16 0.00 0.00
2:53 pm 14:53 Sunny 49 9.4 15 -9.4 26 26 NW 9 15 30.05 1018 10 16 0.00 0.00
3:53 pm 15:53 Sunny 49 9.4 16 -8.9 27 27 N 9 15 30.07 1018 10 16 0.00 0.00
4:53 pm 16:53 Clear 46 7.8 16 -8.9 30 30 NW 7 11 30.09 1019 10 16 0.00 0.00
5:53 pm 17:53 Clear 44 6.7 16 -8.9 32 32 NW 6 9 30.11 1020 10 16 0.00 0.00
6:53 pm 18:53 Clear 41 5 18 -7.8 39 39 VRB 5 7 30.13 1020 10 16 0.00 0.00
7:53 pm 19:53 Clear 39 3.9 17 -8.3 41 41 N 6 9 30.15 1021 10 16 0.00 0.00
8:53 pm 20:53 Clear 37 2.8 17 -8.3 44 44 NW 6 9 30.17 1022 10 16 0.00 0.00
9:53 pm 21:53 Clear 35 1.7 17 -8.3 48 48 NW 7 11 30.18 1022 10 16 0.00 0.00
10:53 pm 22:53 Clear 36 2.2 19 -7.2 50 50 WNW 7 11 30.19 1022 10 16 0.00 0.00
11:53 pm 23:53 Clear 33 0.6 18 -7.8 54 54 Calm 30.20 1023 10 16 0.00 0.00

Powered by AerisWeather